Delta Virtual Airport Information Service

Salt Lake City International Airport

ICAO: KSLC Country: United States
Latitude: 40.7884 Longitude: -111.977
Latest Arrival : SWA4271 (B) (KLAS-KSLC) Latest Departure : DAL1059 (A) (KSLC-KATL)


WX CaptureLIVE
Data provided by noaa.gov | Fetched at 08:03:18

METAR : KSLC 061354Z VRB04KT 10SM SCT150 BKN220 08/M07 A2993 RMK AO2 SLP118 T00781067 $

TAF : KSLC 061120Z 0612/0718 15014KT P6SM SCT250 FM061600 17016G25KT P6SM SCT250 FM061900 19020G35KT P6SM SCT250 FM062100 25020G35KT P6SM FEW250 FM070000 33008G20KT P6SM FEW250 FM070300 33008KT P6SM SKC


Runway Data for KSLC
Data provided by openaviationdata.com

Runway ID Mag Var Hdg Length Elevation Surface ILS Freq ILS Id ILS Slope
14 14 138° 4892 ft 4226 ft Asphalt -- -- --
16L 14 160° 12011 ft 4226 ft Asphalt 109.5 IMOY 3
16R 14 160° 12006 ft 4226 ft Concrete 111.9 IUAT 3
17 14 165° 9602 ft 4226 ft Asphalt 111.5 IBNT 3
32 14 318° 4892 ft 4226 ft Asphalt -- -- --
34L 14 340° 12006 ft 4226 ft Concrete 111.9 IUUH 3
34R 14 340° 12011 ft 4226 ft Asphalt 109.5 ISLC 3
35 14 345° 9602 ft 4226 ft Asphalt 110.1 IUTJ 3

Salt Lake City International Airport, United States
Use only for reference purposes



Not for navigational purposes.